QPF
0.22 0.18 0.13 0.10 0.05 0.03 0.02 0.01 0.01 0.01 0.01 0.01 0.01 0.01 0.01 0.01 0.01 0.02 0.04 0.05 0.09 0.13 0.17 0.20 0.23 0.24 0.24 0.22 0.20 0.18 0.15 0.11 0.08 0.04 0.02 0.01 0.00 0.00 0.00 0.00 0.00 0.00 0.00
0.15 0.15 0.11 0.08 0.06 0.04 0.03 0.02 0.01 0.00 0.00 0.00 0.00 0.01 0.01 0.01 0.01 0.02 0.03 0.04 0.06 0.11 0.18 0.24 0.26 0.26 0.26 0.24 0.20 0.17 0.13 0.11 0.09 0.07 0.04 0.01 0.00 0.00 0.00 0.00 0.00 0.00 0.01
0.04 0.05 0.05 0.03 0.02 0.01 0.01 0.01 0.01 0.01 0.01 0.01 0.00 0.00 0.00 0.01 0.01 0.01 0.02 0.03 0.04 0.07 0.11 0.16 0.21 0.23 0.23 0.21 0.18 0.15 0.12 0.09 0.08 0.06 0.04 0.01 0.00 0.00 0.00 0.00 0.00 0.00 0.00
0.00 0.00 0.00 0.00 0.00 0.00 0.00 0.00 0.00 0.00 0.00 0.00 0.01 0.00 0.00 0.01 0.01 0.02 0.04 0.04 0.04 0.06 0.09 0.11 0.14 0.14 0.14 0.14 0.13 0.11 0.08 0.06 0.05 0.03 0.02 0.01 0.01 0.01 0.01 0.01 0.01 0.02 0.02
0.00 0.00 0.00 0.00 0.00 0.00 0.00 0.00 0.00 0.00 0.00 0.00 0.00 0.00 0.00 0.00 0.01 0.02 0.03 0.04 0.05 0.06 0.09 0.11 0.12 0.13 0.12 0.11 0.09 0.07 0.06 0.05 0.03 0.02 0.02 0.01 0.01 0.01 0.01 0.01 0.02 0.03 0.03
0.00 0.00 0.00 0.00 0.00 0.00 0.00 0.00 0.00 0.00 0.00 0.00 0.00 0.00 0.00 0.00 0.00 0.00 0.02 0.03 0.04 0.06 0.08 0.09 0.10 0.13 0.15 0.11 0.08 0.06 0.05 0.05 0.04 0.03 0.02 0.02 0.01 0.01 0.02 0.02 0.03 0.04 0.03
0.00 0.00 0.00 0.00 0.00 0.00 0.00 0.00 0.00 0.00 0.00 0.00 0.00 0.00 0.00 0.00 0.00 0.00 0.01 0.02 0.02 0.03 0.06 0.10 0.12 0.15 0.16 0.17 0.16 0.10 0.05 0.03 0.03 0.03 0.02 0.02 0.01 0.01 0.02 0.04 0.06 0.07 0.03
0.00 0.00 0.00 0.00 0.00 0.00 0.00 0.00 0.00 0.00 0.00 0.00 0.00 0.00 0.00 0.00 0.00 0.00 0.00 0.01 0.01 0.02 0.04 0.07 0.13 0.18 0.19 0.21 0.21 0.22 0.14 0.06 0.03 0.02 0.02 0.02 0.01 0.02 0.03 0.04 0.04 0.03 0.02
0.00 0.00 0.00 0.00 0.00 0.00 0.00 0.00 0.00 0.00 0.00 0.00 0.00 0.00 0.00 0.00 0.01 0.00 0.00 0.00 0.01 0.02 0.04 0.06 0.09 0.15 0.18 0.21 0.21 0.19 0.14 0.08 0.06 0.04 0.02 0.01 0.01 0.02 0.02 0.03 0.03 0.03 0.02
0.00 0.00 0.00 0.00 0.00 0.00 0.00 0.00 0.00 0.00 0.00 0.00 0.00 0.00 0.00 0.00 0.01 0.01 0.00 0.00 0.00 0.01 0.02 0.04 0.08 0.10 0.11 0.16 0.18 0.18 0.15 0.08 0.05 0.04 0.02 0.01 0.01 0.00 0.01 0.05 0.06 0.05 0.02
0.00 0.00 0.00 0.00 0.00 0.00 0.00 0.00 0.00 0.00 0.00 0.00 0.00 0.00 0.00 0.00 0.00 0.01 0.01 0.00 0.00 0.00 0.01 0.03 0.04 0.06 0.08 0.12 0.15 0.14 0.15 0.11 0.07 0.04 0.02 0.01 0.01 0.00 0.01 0.01 0.02 0.03 0.02
0.00 0.00 0.00 0.00 0.00 0.00 0.00 0.00 0.00 0.00 0.00 0.00 0.00 0.00 0.00 0.00 0.00 0.00 0.01 0.00 0.00 0.01 0.01 0.02 0.03 0.03 0.04 0.06 0.07 0.08 0.10 0.11 0.07 0.05 0.04 0.02 0.01 0.00 0.00 0.00 0.00 0.00 0.00
0.00 0.00 0.00 0.00 0.00 0.00 0.00 0.00 0.00 0.00 0.00 0.00 0.00 0.00 0.00 0.00 0.00 0.00 0.00 0.00 0.01 0.01 0.01 0.02 0.02 0.02 0.03 0.04 0.04 0.06 0.07 0.09 0.09 0.07 0.04 0.02 0.01 0.00 0.00 0.00 0.00 0.00 0.00
0.00 0.00 0.00 0.00 0.00 0.00 0.00 0.00 0.00 0.00 0.00 0.00 0.00 0.00 0.00 0.00 0.00 0.01 0.01 0.01 0.01 0.01 0.01 0.01 0.01 0.01 0.02 0.03 0.03 0.04 0.07 0.10 0.10 0.06 0.03 0.01 0.00 0.00 0.00 0.00 0.00 0.00 0.00
0.00 0.00 0.00 0.00 0.00 0.00 0.00 0.00 0.00 0.00 0.00 0.00 0.00 0.00 0.00 0.00 0.00 0.00 0.01 0.01 0.01 0.01 0.01 0.01 0.01 0.01 0.01 0.02 0.02 0.03 0.05 0.06 0.07 0.05 0.03 0.01 0.01 0.01 0.00 0.00 0.00 0.00 0.00
0.00 0.00 0.00 0.00 0.00 0.00 0.00 0.00 0.00 0.00 0.00 0.00 0.00 0.00 0.00 0.00 0.00 0.00 0.00 0.00 0.00 0.00 0.01 0.01 0.01 0.01 0.01 0.01 0.02 0.03 0.03 0.04 0.05 0.04 0.02 0.01 0.01 0.01 0.00 0.00 0.00 0.00 0.00
0.00 0.00 0.00 0.00 0.00 0.00 0.00 0.00 0.00 0.00 0.00 0.00 0.00 0.00 0.00 0.00 0.00 0.00 0.00 0.00 0.00 0.00 0.00 0.01 0.01 0.00 0.00 0.01 0.01 0.02 0.01 0.01 0.02 0.01 0.01 0.01 0.01 0.00 0.00 0.00 0.00 0.00 0.00
0.00 0.00 0.00 0.00 0.00 0.00 0.00 0.00 0.00 0.00 0.00 0.00 0.00 0.00 0.00 0.00 0.00 0.00 0.00 0.00 0.00 0.00 0.00 0.00 0.00 0.00 0.00 0.00 0.00 0.00 0.00 0.01 0.01 0.00 0.00 0.00 0.00 0.00 0.00 0.00 0.00 0.00 0.00
0.00 0.00 0.00 0.00 0.00 0.00 0.00 0.00 0.00 0.00 0.00 0.00 0.00 0.00 0.00 0.00 0.00 0.00 0.00 0.00 0.00 0.00 0.00 0.00 0.00 0.00 0.00 0.00 0.00 0.00 0.00 0.00 0.00 0.00 0.00 0.00 0.00 0.00 0.00 0.00 0.00 0.00 0.00
0.00 0.00 0.00 0.00 0.00 0.00 0.00 0.00 0.00 0.00 0.00 0.00 0.00 0.00 0.00 0.00 0.00 0.00 0.00 0.00 0.00 0.00 0.00 0.00 0.00 0.00 0.00 0.00 0.00 0.00 0.00 0.00 0.00 0.00 0.00 0.00 0.00 0.00 0.00 0.00 0.00 0.00 0.00
0.00 0.00 0.00 0.00 0.00 0.00 0.00 0.00 0.00 0.00 0.00 0.00 0.00 0.00 0.00 0.00 0.00 0.00 0.00 0.00 0.00 0.00 0.00 0.00 0.00 0.00 0.00 0.00 0.00 0.00 0.00 0.00 0.00 0.00 0.00 0.00 0.00 0.00 0.00 0.00 0.00 0.00 0.00
0.00 0.00 0.00 0.00 0.00 0.00 0.00 0.00 0.00 0.00 0.00 0.00 0.00 0.00 0.00 0.00 0.00 0.00 0.00 0.00 0.00 0.00 0.00 0.00 0.00 0.00 0.00 0.00 0.00 0.00 0.00 0.00 0.00 0.00 0.00 0.00 0.00 0.00 0.00 0.00 0.00 0.00 0.00
0.00 0.00 0.00 0.00 0.00 0.00 0.00 0.00 0.00 0.00 0.00 0.00 0.00 0.00 0.00 0.00 0.00 0.00 0.00 0.00 0.00 0.00 0.00 0.00 0.00 0.00 0.00 0.00 0.00 0.00 0.00 0.00 0.00 0.00 0.00 0.00 0.00 0.00 0.00 0.00 0.00 0.00 0.00
0.00 0.00 0.00 0.00 0.00 0.00 0.00 0.00 0.00 0.00 0.00 0.00 0.00 0.00 0.00 0.00 0.00 0.00 0.00 0.00 0.00 0.00 0.00 0.00 0.00 0.00 0.00 0.00 0.00 0.00 0.00 0.00 0.00 0.00 0.00 0.00 0.00 0.00 0.00 0.00 0.00 0.00 0.00
0.00 0.00 0.00 0.00 0.00 0.00 0.00 0.00 0.00 0.00 0.00 0.00 0.00 0.00 0.00 0.00 0.00 0.00 0.00 0.00 0.00 0.00 0.00 0.00 0.00 0.00 0.00 0.00 0.00 0.00 0.00 0.00 0.00 0.00 0.00 0.00 0.00 0.00 0.00 0.00 0.00 0.00 0.00
0.00 0.00 0.00 0.00 0.00 0.00 0.00 0.00 0.00 0.00 0.00 0.00 0.00 0.00 0.00 0.00 0.00 0.00 0.00 0.00 0.00 0.00 0.00 0.00 0.00 0.00 0.00 0.00 0.00 0.00 0.00 0.00 0.00 0.00 0.00 0.00 0.00 0.00 0.00 0.00 0.00 0.00 0.00
MSLP
1016.98 1016.59 1016.23 1015.88 1015.54 1015.20 1014.87 1014.53 1014.21 1013.91 1013.64 1013.42 1013.24 1013.12 1013.04 1013.01 1013.00 1013.01 1013.05 1013.11 1013.21 1013.35 1013.55 1013.81 1014.14 1014.52 1014.94 1015.36 1015.74 1016.06 1016.29 1016.41 1016.42 1016.33 1016.18 1015.99 1015.81 1015.68 1015.62 1015.64 1015.76 1015.95 1016.20
1017.31 1016.93 1016.57 1016.22 1015.88 1015.55 1015.22 1014.90 1014.60 1014.32 1014.08 1013.87 1013.71 1013.58 1013.49 1013.43 1013.38 1013.34 1013.32 1013.31 1013.33 1013.40 1013.52 1013.70 1013.96 1014.28 1014.64 1015.02 1015.38 1015.70 1015.94 1016.08 1016.12 1016.08 1015.96 1015.81 1015.67 1015.56 1015.52 1015.56 1015.68 1015.88 1016.15
1017.63 1017.26 1016.90 1016.54 1016.20 1015.87 1015.55 1015.25 1014.98 1014.73 1014.51 1014.33 1014.18 1014.06 1013.96 1013.87 1013.79 1013.71 1013.63 1013.56 1013.51 1013.51 1013.56 1013.67 1013.86 1014.11 1014.42 1014.76 1015.09 1015.38 1015.61 1015.77 1015.83 1015.81 1015.73 1015.62 1015.51 1015.44 1015.44 1015.52 1015.68 1015.92 1016.22
1017.92 1017.57 1017.22 1016.87 1016.53 1016.21 1015.90 1015.62 1015.37 1015.15 1014.97 1014.81 1014.68 1014.56 1014.45 1014.35 1014.23 1014.10 1013.97 1013.84 1013.73 1013.67 1013.65 1013.71 1013.84 1014.04 1014.30 1014.59 1014.88 1015.15 1015.37 1015.52 1015.58 1015.58 1015.52 1015.44 1015.38 1015.35 1015.40 1015.53 1015.75 1016.05 1016.41
1018.19 1017.87 1017.54 1017.21 1016.89 1016.59 1016.30 1016.04 1015.82 1015.63 1015.47 1015.33 1015.21 1015.09 1014.97 1014.83 1014.68 1014.50 1014.32 1014.14 1013.98 1013.86 1013.80 1013.81 1013.89 1014.05 1014.27 1014.53 1014.79 1015.04 1015.23 1015.36 1015.42 1015.42 1015.38 1015.32 1015.29 1015.31 1015.41 1015.60 1015.88 1016.25 1016.67
1018.40 1018.14 1017.86 1017.57 1017.28 1017.01 1016.76 1016.53 1016.34 1016.17 1016.03 1015.90 1015.78 1015.65 1015.50 1015.33 1015.13 1014.91 1014.67 1014.44 1014.24 1014.08 1013.98 1013.96 1014.02 1014.15 1014.35 1014.58 1014.82 1015.04 1015.21 1015.32 1015.37 1015.36 1015.32 1015.28 1015.27 1015.32 1015.46 1015.70 1016.04 1016.47 1016.96
1018.56 1018.37 1018.16 1017.93 1017.70 1017.47 1017.26 1017.06 1016.90 1016.75 1016.62 1016.50 1016.37 1016.22 1016.04 1015.82 1015.58 1015.30 1015.02 1014.75 1014.50 1014.31 1014.19 1014.15 1014.20 1014.32 1014.51 1014.72 1014.94 1015.14 1015.30 1015.39 1015.42 1015.40 1015.35 1015.31 1015.32 1015.39 1015.56 1015.83 1016.22 1016.69 1017.23
1018.66 1018.55 1018.42 1018.26 1018.10 1017.93 1017.76 1017.61 1017.47 1017.35 1017.22 1017.09 1016.94 1016.76 1016.55 1016.29 1016.00 1015.68 1015.36 1015.04 1014.77 1014.56 1014.43 1014.39 1014.43 1014.55 1014.73 1014.94 1015.16 1015.34 1015.48 1015.55 1015.57 1015.54 1015.49 1015.44 1015.44 1015.52 1015.70 1015.99 1016.39 1016.88 1017.44
1018.72 1018.69 1018.64 1018.56 1018.46 1018.35 1018.24 1018.12 1018.01 1017.90 1017.78 1017.64 1017.47 1017.26 1017.01 1016.71 1016.38 1016.03 1015.67 1015.34 1015.05 1014.83 1014.70 1014.65 1014.70 1014.82 1015.00 1015.21 1015.42 1015.60 1015.73 1015.80 1015.81 1015.77 1015.71 1015.66 1015.65 1015.72 1015.89 1016.17 1016.56 1017.05 1017.60
1018.76 1018.80 1018.81 1018.80 1018.77 1018.72 1018.65 1018.57 1018.48 1018.38 1018.26 1018.11 1017.92 1017.68 1017.41 1017.08 1016.73 1016.35 1015.98 1015.64 1015.34 1015.12 1014.99 1014.95 1015.00 1015.12 1015.30 1015.51 1015.72 1015.89 1016.02 1016.09 1016.10 1016.07 1016.01 1015.96 1015.95 1016.01 1016.16 1016.41 1016.77 1017.21 1017.73
1018.82 1018.90 1018.96 1019.01 1019.02 1019.01 1018.98 1018.93 1018.86 1018.76 1018.64 1018.48 1018.28 1018.03 1017.74 1017.40 1017.04 1016.66 1016.29 1015.94 1015.66 1015.44 1015.31 1015.27 1015.32 1015.44 1015.61 1015.81 1016.01 1016.19 1016.33 1016.41 1016.44 1016.42 1016.38 1016.34 1016.33 1016.38 1016.50 1016.72 1017.03 1017.42 1017.88
1018.90 1019.00 1019.09 1019.17 1019.21 1019.24 1019.23 1019.20 1019.14 1019.05 1018.93 1018.77 1018.57 1018.32 1018.02 1017.69 1017.33 1016.96 1016.60 1016.27 1016.00 1015.79 1015.66 1015.61 1015.65 1015.75 1015.91 1016.10 1016.30 1016.48 1016.63 1016.73 1016.79 1016.80 1016.80 1016.78 1016.79 1016.83 1016.93 1017.11 1017.37 1017.69 1018.08
1018.99 1019.10 1019.20 1019.29 1019.35 1019.39 1019.40 1019.39 1019.34 1019.26 1019.15 1018.99 1018.80 1018.56 1018.28 1017.96 1017.63 1017.28 1016.95 1016.64 1016.37 1016.16 1016.03 1015.97 1015.98 1016.07 1016.20 1016.37 1016.56 1016.74 1016.90 1017.04 1017.13 1017.20 1017.23 1017.26 1017.29 1017.35 1017.44 1017.59 1017.79 1018.05 1018.36
1019.08 1019.18 1019.28 1019.36 1019.43 1019.48 1019.51 1019.50 1019.47 1019.40 1019.30 1019.16 1018.99 1018.77 1018.52 1018.24 1017.94 1017.62 1017.32 1017.03 1016.77 1016.57 1016.42 1016.34 1016.32 1016.37 1016.47 1016.61 1016.78 1016.96 1017.14 1017.31 1017.45 1017.57 1017.66 1017.74 1017.82 1017.90 1017.99 1018.12 1018.28 1018.48 1018.73
1019.12 1019.20 1019.29 1019.38 1019.45 1019.50 1019.54 1019.55 1019.53 1019.49 1019.41 1019.30 1019.16 1018.98 1018.76 1018.52 1018.26 1017.99 1017.71 1017.44 1017.20 1017.00 1016.83 1016.72 1016.67 1016.67 1016.73 1016.84 1016.98 1017.16 1017.35 1017.54 1017.73 1017.90 1018.06 1018.20 1018.32 1018.43 1018.54 1018.66 1018.80 1018.96 1019.15
1019.08 1019.15 1019.23 1019.31 1019.38 1019.44 1019.49 1019.52 1019.53 1019.52 1019.48 1019.40 1019.30 1019.16 1018.99 1018.80 1018.58 1018.35 1018.11 1017.87 1017.64 1017.43 1017.25 1017.11 1017.01 1016.97 1016.99 1017.06 1017.17 1017.33 1017.52 1017.74 1017.96 1018.18 1018.39 1018.58 1018.75 1018.90 1019.04 1019.16 1019.29 1019.42 1019.57
1018.93 1018.99 1019.06 1019.14 1019.22 1019.29 1019.36 1019.42 1019.46 1019.48 1019.47 1019.44 1019.38 1019.30 1019.18 1019.04 1018.87 1018.68 1018.48 1018.26 1018.05 1017.84 1017.65 1017.49 1017.37 1017.29 1017.26 1017.29 1017.37 1017.51 1017.70 1017.92 1018.16 1018.41 1018.66 1018.89 1019.10 1019.28 1019.44 1019.58 1019.70 1019.82 1019.95
1018.68 1018.74 1018.80 1018.88 1018.96 1019.05 1019.13 1019.21 1019.28 1019.34 1019.38 1019.39 1019.38 1019.35 1019.28 1019.19 1019.08 1018.93 1018.77 1018.60 1018.41 1018.22 1018.04 1017.87 1017.73 1017.62 1017.56 1017.56 1017.61 1017.73 1017.89 1018.10 1018.34 1018.60 1018.87 1019.12 1019.35 1019.56 1019.73 1019.88 1020.01 1020.13 1020.25
1018.36 1018.40 1018.46 1018.53 1018.62 1018.71 1018.81 1018.92 1019.01 1019.10 1019.17 1019.23 1019.26 1019.27 1019.26 1019.22 1019.16 1019.07 1018.96 1018.84 1018.69 1018.54 1018.38 1018.23 1018.09 1017.98 1017.91 1017.88 1017.91 1017.99 1018.13 1018.32 1018.54 1018.79 1019.04 1019.29 1019.53 1019.74 1019.92 1020.07 1020.20 1020.33 1020.45
1018.01 1018.04 1018.08 1018.14 1018.22 1018.32 1018.42 1018.53 1018.65 1018.76 1018.85 1018.94 1019.01 1019.06 1019.09 1019.10 1019.09 1019.06 1019.02 1018.95 1018.87 1018.77 1018.66 1018.55 1018.44 1018.35 1018.29 1018.25 1018.27 1018.32 1018.43 1018.58 1018.77 1018.98 1019.21 1019.44 1019.65 1019.85 1020.02 1020.17 1020.31 1020.43 1020.56
1017.67 1017.68 1017.70 1017.75 1017.81 1017.89 1017.99 1018.10 1018.21 1018.32 1018.43 1018.53 1018.62 1018.70 1018.76 1018.82 1018.86 1018.89 1018.91 1018.92 1018.91 1018.89 1018.85 1018.81 1018.76 1018.71 1018.67 1018.66 1018.67 1018.71 1018.78 1018.90 1019.04 1019.21 1019.39 1019.58 1019.76 1019.93 1020.09 1020.23 1020.36 1020.48 1020.61
1017.36 1017.35 1017.36 1017.38 1017.42 1017.48 1017.55 1017.64 1017.74 1017.84 1017.94 1018.03 1018.13 1018.22 1018.31 1018.40 1018.48 1018.57 1018.66 1018.74 1018.81 1018.88 1018.93 1018.97 1019.00 1019.02 1019.03 1019.05 1019.07 1019.11 1019.16 1019.24 1019.34 1019.46 1019.59 1019.73 1019.88 1020.01 1020.15 1020.27 1020.39 1020.51 1020.63
1017.09 1017.07 1017.06 1017.06 1017.07 1017.10 1017.15 1017.20 1017.27 1017.34 1017.41 1017.49 1017.57 1017.66 1017.76 1017.86 1017.98 1018.12 1018.27 1018.42 1018.58 1018.74 1018.88 1019.02 1019.13 1019.23 1019.31 1019.37 1019.42 1019.47 1019.52 1019.57 1019.64 1019.72 1019.80 1019.90 1020.01 1020.11 1020.22 1020.33 1020.44 1020.54 1020.65
1016.84 1016.83 1016.80 1016.79 1016.78 1016.77 1016.78 1016.80 1016.83 1016.86 1016.89 1016.94 1017.00 1017.07 1017.16 1017.27 1017.41 1017.58 1017.77 1017.98 1018.22 1018.45 1018.69 1018.92 1019.12 1019.29 1019.44 1019.56 1019.66 1019.73 1019.79 1019.84 1019.89 1019.94 1020.00 1020.06 1020.14 1020.22 1020.31 1020.40 1020.50 1020.59 1020.70
1016.57 1016.57 1016.55 1016.53 1016.50 1016.48 1016.46 1016.44 1016.42 1016.41 1016.41 1016.42 1016.44 1016.48 1016.55 1016.65 1016.80 1016.98 1017.20 1017.46 1017.74 1018.04 1018.35 1018.65 1018.93 1019.19 1019.41 1019.59 1019.73 1019.84 1019.92 1019.98 1020.03 1020.08 1020.12 1020.18 1020.24 1020.31 1020.39 1020.47 1020.56 1020.65 1020.74
1016.23 1016.26 1016.26 1016.24 1016.21 1016.18 1016.13 1016.09 1016.04 1016.00 1015.96 1015.93 1015.91 1015.92 1015.97 1016.05 1016.18 1016.36 1016.58 1016.86 1017.17 1017.51 1017.87 1018.23 1018.57 1018.89 1019.17 1019.41 1019.60 1019.76 1019.88 1019.97 1020.04 1020.09 1020.15 1020.21 1020.27 1020.34 1020.42 1020.51 1020.59 1020.68 1020.76
Thickness
5631 5632 5633 5635 5637 5641 5645 5649 5654 5660 5665 5669 5673 5677 5679 5681 5683 5684 5685 5687 5689 5690 5692 5692 5692 5692 5691 5690 5688 5686 5684 5683 5680 5683 5688 5691 5692 5694 5694 5695 5697 5696 5696
5631 5632 5633 5634 5636 5638 5641 5644 5649 5652 5657 5661 5664 5667 5669 5671 5673 5674 5674 5676 5677 5678 5680 5681 5681 5682 5681 5680 5679 5678 5677 5677 5675 5675 5678 5682 5684 5687 5687 5688 5689 5690 5690
5633 5634 5634 5634 5636 5637 5639 5641 5644 5646 5650 5654 5657 5659 5660 5662 5663 5664 5665 5666 5667 5668 5668 5669 5669 5670 5670 5670 5670 5670 5670 5670 5670 5670 5672 5674 5677 5678 5679 5681 5683 5683 5682
5635 5635 5634 5634 5634 5635 5636 5638 5640 5641 5643 5646 5648 5650 5651 5652 5653 5656 5657 5658 5659 5659 5659 5659 5659 5660 5660 5661 5661 5661 5662 5662 5663 5664 5665 5667 5669 5671 5673 5674 5674 5674 5675
5636 5635 5633 5634 5633 5633 5634 5634 5635 5636 5637 5637 5639 5641 5641 5641 5641 5643 5648 5650 5650 5651 5651 5652 5652 5652 5652 5653 5653 5653 5653 5655 5656 5657 5659 5661 5662 5663 5666 5668 5666 5666 5665
5638 5636 5634 5634 5633 5632 5632 5632 5632 5631 5631 5630 5630 5630 5631 5629 5628 5630 5634 5639 5640 5642 5643 5644 5644 5644 5644 5643 5644 5645 5647 5649 5650 5653 5654 5655 5657 5659 5660 5661 5660 5660 5656
5641 5638 5636 5634 5632 5631 5631 5630 5628 5627 5625 5623 5622 5622 5621 5619 5619 5621 5623 5628 5630 5631 5634 5636 5637 5637 5637 5637 5637 5637 5639 5641 5644 5650 5650 5651 5653 5655 5656 5656 5656 5655 5651
5643 5639 5637 5634 5633 5631 5630 5628 5626 5625 5621 5618 5615 5614 5613 5611 5610 5611 5614 5619 5620 5622 5624 5627 5628 5628 5629 5630 5631 5632 5634 5635 5639 5644 5647 5647 5649 5651 5653 5653 5651 5648 5645
5644 5640 5638 5636 5633 5630 5628 5626 5623 5621 5619 5616 5610 5608 5606 5605 5602 5602 5605 5610 5612 5613 5616 5618 5621 5622 5622 5624 5625 5625 5626 5627 5628 5631 5635 5636 5638 5642 5646 5648 5646 5644 5639
5646 5642 5638 5636 5633 5629 5626 5624 5621 5618 5615 5612 5607 5604 5601 5598 5594 5594 5595 5601 5603 5604 5606 5610 5610 5614 5615 5618 5621 5621 5621 5623 5626 5627 5630 5632 5635 5637 5639 5644 5644 5642 5639
5647 5643 5639 5636 5632 5628 5625 5622 5619 5616 5613 5610 5606 5602 5597 5591 5589 5586 5586 5591 5592 5596 5599 5601 5603 5605 5609 5612 5617 5619 5619 5621 5624 5626 5627 5629 5631 5634 5636 5637 5639 5641 5638
5649 5644 5640 5636 5633 5629 5624 5621 5618 5614 5611 5607 5604 5600 5595 5590 5584 5581 5579 5580 5583 5587 5590 5594 5596 5599 5604 5608 5613 5614 5617 5619 5622 5623 5623 5624 5625 5626 5627 5629 5630 5630 5631
5652 5646 5642 5638 5633 5629 5626 5621 5618 5614 5611 5608 5603 5599 5595 5590 5585 5580 5578 5577 5578 5582 5584 5585 5589 5595 5600 5605 5608 5611 5615 5618 5619 5619 5618 5617 5619 5621 5622 5622 5623 5623 5622
5656 5651 5646 5642 5637 5632 5626 5623 5619 5615 5611 5608 5603 5599 5595 5591 5585 5581 5581 5581 5579 5581 5583 5583 5587 5593 5598 5601 5606 5610 5614 5616 5617 5616 5614 5614 5615 5616 5618 5619 5619 5619 5618
5659 5655 5650 5645 5640 5636 5631 5624 5620 5614 5608 5604 5603 5600 5595 5592 5584 5579 5579 5582 5583 5584 5586 5589 5593 5596 5600 5603 5606 5609 5612 5613 5613 5613 5612 5613 5614 5614 5615 5617 5618 5620 5618
5664 5659 5654 5649 5644 5640 5635 5630 5619 5614 5608 5604 5600 5597 5597 5590 5587 5585 5584 5584 5585 5587 5591 5593 5594 5596 5599 5601 5604 5606 5609 5611 5612 5612 5612 5613 5613 5614 5614 5615 5617 5617 5616
5668 5663 5659 5654 5649 5645 5640 5636 5631 5621 5613 5609 5605 5601 5598 5595 5593 5592 5590 5590 5591 5593 5595 5595 5596 5597 5599 5601 5603 5606 5607 5609 5611 5613 5613 5614 5614 5615 5615 5615 5616 5616 5616
5671 5665 5661 5657 5653 5650 5646 5641 5636 5632 5626 5621 5613 5607 5603 5601 5599 5598 5598 5599 5599 5598 5597 5597 5597 5598 5600 5602 5604 5606 5608 5610 5612 5613 5614 5614 5615 5615 5615 5615 5616 5616 5616
5674 5670 5666 5663 5658 5654 5650 5646 5642 5637 5633 5628 5625 5619 5611 5608 5606 5605 5606 5607 5605 5603 5602 5601 5601 5602 5604 5605 5607 5609 5611 5611 5612 5613 5613 5613 5615 5615 5616 5616 5615 5609 5615
5675 5670 5666 5666 5663 5659 5656 5652 5648 5644 5640 5636 5632 5628 5623 5621 5619 5616 5613 5612 5611 5609 5608 5607 5607 5608 5609 5609 5610 5612 5613 5613 5613 5614 5614 5614 5615 5616 5615 5615 5616 5616 5616
5678 5675 5666 5667 5667 5665 5661 5658 5654 5650 5647 5644 5640 5634 5625 5627 5625 5621 5619 5617 5615 5614 5613 5612 5612 5612 5612 5613 5614 5615 5616 5616 5616 5616 5616 5615 5615 5615 5615 5616 5615 5615 5615
5680 5679 5675 5674 5671 5667 5665 5663 5660 5656 5653 5649 5646 5641 5631 5633 5632 5629 5626 5623 5621 5618 5617 5616 5616 5615 5615 5616 5617 5618 5618 5618 5618 5617 5617 5616 5615 5615 5615 5615 5615 5614 5613
5678 5678 5676 5675 5673 5668 5665 5666 5664 5661 5659 5656 5653 5650 5645 5643 5640 5637 5634 5630 5627 5624 5622 5620 5620 5619 5618 5617 5618 5619 5621 5620 5619 5619 5618 5617 5617 5616 5616 5615 5614 5613 5613
5678 5677 5676 5676 5674 5673 5671 5670 5669 5666 5664 5662 5659 5656 5654 5650 5648 5644 5641 5638 5634 5631 5628 5626 5625 5624 5622 5621 5620 5620 5620 5619 5618 5618 5618 5618 5617 5617 5616 5614 5613 5613 5611
5677 5676 5675 5675 5675 5674 5673 5673 5671 5670 5668 5666 5664 5662 5659 5657 5654 5651 5648 5644 5640 5638 5635 5632 5630 5628 5627 5625 5624 5623 5621 5619 5619 5619 5618 5618 5617 5616 5615 5614 5613 5611 5609
5675 5675 5674 5674 5674 5673 5673 5673 5673 5672 5671 5669 5668 5666 5664 5661 5659 5656 5653 5650 5646 5643 5640 5637 5635 5633 5630 5629 5627 5625 5622 5621 5619 5618 5618 5618 5617 5616 5614 5613 5611 5609 5606